YAOGAN-27

Last updated on Mon Sep 14 2026 00:02:45 GMT+0000 (Coordinated Universal Time)

1 40878U 15040A 26256.59262140 -.00000211 00000+0 -44259-3 0 9999 2 40878 100.1260 239.1731 0008571 15.3018 344.8353 13.16074147529295
UTC large
Height (km)
Speed (km/s)
/
Latitude / Longitude
Inclination (degrees)
Orbital Period (minutes)
Azimuth
Elevation
Range (km)
Doppler Factor

Next 0 passes for location: London (51.5072 / 0.1276)

No passes found over London.
YAOGAN-27